| time (UTC) | temp F | wind direction | speed knots | gust knots | rain 1hr in | rain 24hr in | rain mn in | humidity % | barometer mb |
| 20260505223011 | 74 | 251 | 13.0 | 20.0 | 0.00 | 0.07 | 0.07 | 33 | 1005.5 |
| 20260505221511 | 74 | 247 | 12.2 | 22.6 | 0.00 | 0.07 | 0.07 | 33 | 1005.6 |
| 20260505220024 | 75 | 246 | 9.6 | 20.9 | 0.00 | 0.07 | 0.07 | 29 | 1005.6 |
| 20260505214513 | 76 | 233 | 12.2 | 20.0 | 0.00 | 0.07 | 0.07 | 28 | 1005.6 |
| 20260505213008 | 76 | 252 | 9.6 | 19.1 | 0.00 | 0.07 | 0.07 | 27 | 1005.6 |
| 20260505211507 | 75 | 206 | 11.3 | 20.9 | 0.00 | 0.07 | 0.07 | 25 | 1005.8 |
| 20260505210007 | 76 | 190 | 10.4 | 18.2 | 0.00 | 0.07 | 0.07 | 27 | 1005.9 |
| 20260505204505 | 75 | 232 | 8.7 | 21.7 | 0.00 | 0.07 | 0.07 | 29 | 1005.8 |
| 20260505203100 | 74 | 225 | 12.2 | 20.0 | 0.00 | 0.07 | 0.07 | 34 | 1006.2 |
| 20260505201607 | 73 | 268 | 9.6 | 23.5 | 0.00 | 0.07 | 0.07 | 37 | 1006.3 |
| 20260505200056 | 74 | 208 | 7.8 | 20.9 | 0.00 | 0.07 | 0.07 | 35 | 1006.1 |
| 20260505194555 | 74 | 211 | 13.0 | 22.6 | 0.00 | 0.07 | 0.07 | 36 | 1005.9 |
| 20260505193052 | 72 | 239 | 3.5 | 9.6 | 0.00 | 0.07 | 0.07 | 46 | 1006.2 |
| 20260505191555 | 70 | 317 | 4.3 | 8.7 | 0.00 | 0.07 | 0.07 | 50 | 1006.5 |
| 20260505190058 | 69 | 79 | 0.0 | 4.3 | 0.00 | 0.07 | 0.07 | 52 | 1006.8 |
| 20260505184554 | 69 | 296 | 2.6 | 7.8 | 0.00 | 0.07 | 0.07 | 55 | 1007.3 |
| 20260505183049 | 69 | 217 | 2.6 | 7.0 | 0.00 | 0.07 | 0.07 | 51 | 1007.5 |
| 20260505181539 | 68 | 157 | 1.7 | 6.1 | 0.00 | 0.07 | 0.07 | 54 | 1007.4 |
| 20260505180041 | 67 | 264 | 0.0 | 5.2 | 0.00 | 0.07 | 0.07 | 60 | 1007.6 |
| 20260505174541 | 67 | 205 | 0.0 | 3.5 | 0.00 | 0.07 | 0.07 | 57 | 1007.7 |
| 20260505173040 | 67 | 219 | 0.0 | 1.7 | 0.00 | 0.07 | 0.07 | 61 | 1007.9 |
| 20260505171540 | 66 | 149 | 0.0 | 5.2 | 0.00 | 0.07 | 0.07 | 62 | 1007.9 |
| 20260505170033 | 66 | 104 | 1.7 | 4.3 | 0.00 | 0.07 | 0.07 | 63 | 1007.9 |
| 20260505164535 | 66 | 42 | 0.9 | 5.2 | 0.00 | 0.07 | 0.07 | 64 | 1007.9 |
| 20260505163030 | 65 | 65 | 0.0 | 3.5 | 0.00 | 0.07 | 0.07 | 68 | 1008.0 |
| 20260505161524 | 63 | 65 | 0.0 | 4.3 | 0.00 | 0.07 | 0.07 | 69 | 1008.0 |
| 20260505153028 | 61 | 82 | 0.9 | 3.5 | 0.00 | 0.07 | 0.07 | 77 | 1008.1 |
| 20260505151522 | 60 | 141 | 0.9 | 2.6 | 0.00 | 0.07 | 0.07 | 82 | 1008.0 |
| 20260505124515 | 56 | 134 | 0.0 | 0.9 | 0.02 | 0.06 | 0.06 | 89 | 1007.3 |
| 20260505123011 | 56 | 109 | 0.0 | 4.3 | 0.02 | 0.05 | 0.05 | 88 | 1006.8 |
| 20260505121512 | 55 | 81 | 1.7 | 3.5 | 0.02 | 0.05 | 0.05 | 88 | 1006.4 |
| 20260505120008 | 55 | 78 | 0.9 | 4.3 | 0.02 | 0.05 | 0.05 | 87 | 1006.5 |
| 20260505114506 | 56 | 104 | 0.0 | 4.3 | 0.02 | 0.04 | 0.04 | 86 | 1007.1 |
| 20260505113007 | 56 | 103 | 1.7 | 7.0 | 0.01 | 0.03 | 0.03 | 85 | 1006.9 |
| 20260505111507 | 56 | 90 | 0.9 | 6.1 | 0.01 | 0.03 | 0.03 | 84 | 1007.1 |
| 20260505101552 | 58 | 93 | 0.9 | 2.6 | 0.02 | 0.02 | 0.02 | 82 | 1007.6 |
| 20260505100049 | 58 | 102 | 0.0 | 1.7 | 0.01 | 0.01 | 0.01 | 80 | 1007.9 |
| 20260505094550 | 58 | 77 | 0.9 | 4.3 | 0.01 | 0.01 | 0.01 | 79 | 1008.1 |
| 20260505093047 | 59 | 88 | 0.9 | 3.5 | 0.01 | 0.01 | 0.01 | 74 | 1008.7 |
| 20260505091546 | 60 | 70 | 0.0 | 1.7 | 0.00 | 0.00 | 0.00 | 73 | 1009.0 |
| 20260505090048 | 61 | 13 | 0.0 | 0.0 | 0.00 | 0.00 | 0.00 | 66 | 1009.3 |
| 20260505084536 | 61 | 13 | 0.0 | 4.3 | 0.00 | 0.00 | 0.00 | 65 | 1009.5 |
| 20260505083034 | 62 | 265 | 0.0 | 1.7 | 0.00 | 0.00 | 0.00 | 61 | 1009.5 |
| 20260505081542 | 62 | 217 | 4.3 | 7.8 | 0.00 | 0.00 | 0.00 | 56 | 1009.6 |
| 20260505080046 | 61 | 286 | 0.0 | 4.3 | 0.00 | 0.00 | 0.00 | 64 | 1009.8 |
| 20260505074531 | 61 | 273 | 1.7 | 8.7 | 0.00 | 0.00 | 0.00 | 65 | 1009.6 |
| 20260505073041 | 61 | 244 | 4.3 | 9.6 | 0.00 | 0.00 | 0.00 | 67 | 1009.8 |
| 20260505071529 | 61 | 282 | 0.0 | 7.8 | 0.00 | 0.00 | 0.00 | 66 | 1009.6 |
| 20260505070024 | 62 | 252 | 6.1 | 13.9 | 0.00 | 0.00 | 0.00 | 64 | 1009.1 |
| 20260505064522 | 62 | 265 | 7.0 | 13.0 | 0.00 | 0.00 | 0.00 | 63 | 1009.1 |
| 20260505063021 | 63 | 230 | 7.0 | 18.2 | 0.00 | 0.00 | 0.00 | 59 | 1009.1 |
| 20260505061521 | 63 | 252 | 7.8 | 15.6 | 0.00 | 0.00 | 0.00 | 59 | 1009.3 |
| 20260505060024 | 64 | 234 | 6.1 | 15.6 | 0.00 | 0.00 | 0.00 | 58 | 1009.0 |
| 20260505054522 | 63 | 246 | 0.9 | 6.1 | 0.00 | 0.00 | 0.00 | 52 | 1009.0 |
| 20260505053021 | 63 | 207 | 1.7 | 7.8 | 0.00 | 0.00 | 0.00 | 53 | 1009.2 |
| 20260505051522 | 63 | 50 | 3.5 | 7.8 | 0.00 | 0.00 | 0.00 | 54 | 1009.0 |
| 20260505041530 | 61 | 117 | 0.9 | 4.3 | 0.00 | 0.00 | 0.00 | 54 | 1009.4 |
| 20260505040014 | 61 | 156 | 0.0 | 0.9 | 0.00 | 0.00 | 0.00 | 55 | 1009.0 |
| 20260505034513 | 61 | 103 | 0.0 | 6.1 | 0.00 | 0.00 | 0.00 | 55 | 1009.2 |
| 20260505033012 | 61 | 250 | 3.5 | 13.0 | 0.00 | 0.00 | 0.00 | 55 | 1008.7 |
| 20260505031516 | 61 | 304 | 7.0 | 15.6 | 0.00 | 0.00 | 0.00 | 59 | 1008.8 |
| 20260505030010 | 61 | 315 | 7.8 | 17.4 | 0.00 | 0.00 | 0.00 | 58 | 1008.4 |
| 20260505024508 | 62 | 311 | 11.3 | 20.0 | 0.00 | 0.00 | 0.00 | 53 | 1008.5 |
| 20260505023008 | 63 | 272 | 8.7 | 22.6 | 0.00 | 0.00 | 0.00 | 53 | 1008.3 |
| 20260505021509 | 63 | 231 | 7.0 | 18.2 | 0.00 | 0.00 | 0.00 | 53 | 1008.1 |
| 20260505020006 | 63 | 271 | 8.7 | 17.4 | 0.00 | 0.00 | 0.00 | 54 | 1008.5 |
| 20260505014504 | 65 | 262 | 9.6 | 18.2 | 0.00 | 0.00 | 0.00 | 48 | 1007.7 |
| 20260505013005 | 65 | 268 | 7.0 | 13.9 | 0.00 | 0.00 | 0.00 | 46 | 1007.1 |
| 20260505011502 | 65 | 273 | 7.0 | 18.2 | 0.00 | 0.00 | 0.00 | 46 | 1007.4 |
| 20260505010100 | 67 | 287 | 5.2 | 13.9 | 0.00 | 0.00 | 0.00 | 41 | 1007.7 |
| 20260505004601 | 68 | 267 | 6.1 | 12.2 | 0.00 | 0.00 | 0.00 | 38 | 1008.1 |
| 20260505003101 | 69 | 276 | 7.8 | 15.6 | 0.00 | 0.00 | 0.00 | 36 | 1008.0 |
| 20260505001631 | 71 | 256 | 8.7 | 20.9 | 0.00 | 0.00 | 0.00 | 33 | 1008.1 |
| 20260505000137 | 74 | 282 | 7.0 | 16.5 | 0.00 | 0.00 | 0.00 | 26 | 1007.0 |
| 20260504234612 | 75 | 292 | 7.0 | 12.2 | 0.00 | 0.00 | 0.00 | 23 | 1007.1 |
| 20260504233106 | 75 | 276 | 8.7 | 20.0 | 0.00 | 0.00 | 0.00 | 21 | 1007.5 |
| 20260504231555 | 76 | 235 | 10.4 | 21.7 | 0.00 | 0.00 | 0.00 | 20 | 1007.1 |
| 20260504230055 | 77 | 216 | 9.6 | 18.2 | 0.00 | 0.00 | 0.00 | 19 | 1006.6 |
| 20260504224608 | 78 | 225 | 10.4 | 19.1 | 0.00 | 0.00 | 0.00 | 19 | 1006.3 |